Weather History for Ellington Field, TX

Change the Weather History Date:

Thursday, February 21, 2013

  Actual Average Record
Temperature  
Mean Temperature 70 °F -  
Max Temperature 77 °F 66 °F 82 °F (2002)
Min Temperature 64 °F 48 °F 44 °F (2002)
Cooling Degree Days 6    
Growing Degree Days 20 (Base 50)    
Moisture  
Dew Point 62 °F    
Average Humidity 81    
Maximum Humidity 100    
Minimum Humidity 45    
Precipitation  
Precipitation 0.00 in - - ()
Sea Level Pressure  
Sea Level Pressure 29.77 in    
Wind  
Wind Speed 13 mph (SSE)    
Max Wind Speed 21 mph    
Max Gust Speed 29 mph    
Visibility 6 miles    
Events Rain    
Averages and records for this station are not official NWS values.
T = Trace of Precipitation, MM = Missing Value Source: NWS Daily Summary

Daily Weather History Graph

Daily Weather History Graph

Search for Another Location

Airport:

Trip Planner

Search our weather history database for the weather conditions in past years. The results will help you decide how hot, cold, wet, or windy it might be!

Date:

Astronomy

Feb. 21, 2013 Rise Set
Actual Time 6:54 AM CST 6:14 PM CST
Civil Twilight 6:30 AM CST 6:38 PM CST
Nautical Twilight 6:02 AM CST 7:06 PM CST
Astronomical Twilight 5:34 AM CST 7:34 PM CST
Moon 2:41 PM CST (2/21) 3:47 AM CST (2/21)
Length of Visible Light 12h 08m
Length of Day
11h 20m
Waxing Gibbous, 84% of the Moon is Illuminated
Feb 21
Waxing Gibbous
Feb 25
Full
Mar 4
Last Quarter
Mar 11
New
Mar 19
First Quarter

Hourly Weather History & Observations

Time (CST) Temp. Dew Point Humidity Pressure Visibility Wind Dir Wind Speed Gust Speed Precip Events Conditions
12:50 AM 64.4 °F 62.6 °F 94% 29.79 in 6.0 mi ESE 16.1 mph 26.5 mph N/A   Overcast
1:50 AM 64.4 °F 62.6 °F 94% 29.78 in 5.0 mi ESE 15.0 mph 23.0 mph N/A   Overcast
2:50 AM 66.2 °F 64.4 °F 94% 29.77 in 5.0 mi ESE 15.0 mph - N/A   Overcast
3:50 AM 66.2 °F 64.4 °F 94% 29.76 in 5.0 mi ESE 13.8 mph - N/A Rain Light Rain
4:50 AM 66.2 °F 64.4 °F 94% 29.74 in 5.0 mi SE 12.7 mph - N/A   Overcast
5:50 AM 66.2 °F 66.2 °F 100% 29.73 in 5.0 mi ESE 15.0 mph - N/A Rain Light Rain
6:50 AM 69.8 °F 68.0 °F 94% 29.74 in 7.0 mi SE 16.1 mph - N/A   Overcast
7:50 AM 69.8 °F 69.8 °F 100% 29.77 in 5.0 mi SE 12.7 mph 23.0 mph N/A Rain Light Rain
8:50 AM 69.8 °F 69.8 °F 100% 29.76 in 4.0 mi SE 16.1 mph - N/A Rain Rain
9:50 AM 69.8 °F 69.8 °F 100% 29.76 in 5.0 mi SSE 17.3 mph - N/A Rain Light Rain
10:50 AM 71.6 °F 69.8 °F 94% 29.74 in 6.0 mi SSE 20.7 mph 28.8 mph N/A   Haze
11:50 AM 71.6 °F 69.8 °F 94% 29.74 in 3.0 mi South 18.4 mph 25.3 mph N/A Rain Rain
12:50 PM 71.6 °F 69.8 °F 94% 29.72 in 6.0 mi South 13.8 mph 23.0 mph N/A   Haze
1:50 PM 73.4 °F 71.6 °F 94% 29.72 in 6.0 mi South 12.7 mph - N/A   Haze
2:50 PM 75.2 °F 71.6 °F 89% 29.69 in 7.0 mi SSW 11.5 mph - N/A   Mostly Cloudy
3:50 PM 77.0 °F 71.6 °F 83% 29.72 in 10.0 mi SW 11.5 mph - N/A   Mostly Cloudy
4:50 PM 73.4 °F 57.2 °F 57% 29.72 in 7.0 mi NW 5.8 mph - N/A   Mostly Cloudy
5:50 PM 73.4 °F 57.2 °F 57% 29.75 in 7.0 mi NNW 6.9 mph - N/A   Overcast
6:50 PM 71.6 °F 57.2 °F 60% 29.80 in 7.0 mi North 4.6 mph - N/A   Overcast
7:50 PM 69.8 °F 50.0 °F 49% 29.82 in 7.0 mi Calm Calm - N/A   Mostly Cloudy
8:50 PM 66.2 °F 48.2 °F 52% 29.84 in 7.0 mi Calm Calm - N/A   Mostly Cloudy
9:50 PM 66.2 °F 48.2 °F 52% 29.85 in 10.0 mi Calm Calm - N/A   Mostly Cloudy
10:50 PM 66.2 °F 48.2 °F 52% 29.87 in 10.0 mi Calm Calm - N/A   Mostly Cloudy
11:50 PM 64.4 °F 42.8 °F 45% 29.86 in 10.0 mi Calm Calm - N/A   Mostly Cloudy